Location: Dal�� Lhota
(48.7500°N, 14.0167°E)
Time: 02:15:19
(UTC+00:00)

ATLAS 2AS CENTAUR R/B - Pass Details

Date: 24 September 2020
Orbit: 939 x 1273 km, 63.7° (Epoch: 27 October)

Event Time Altitude Azimuth Distance (km) Brightness Sun altitude
Rises 18:24:58 0° 197° (SSW) 4,186 5.8 -15.2°
Reaches altitude 10° 18:27:49 10° 193° (SSW) 3,241 5.2 -15.6°
Maximum altitude 18:35:24 52° 120° (ESE) 1,542 3.1 -16.8°
Drops below altitude 10° 18:42:59 10° 47° (NE) 3,235 5.0 -18.0°
Sets 18:45:48 0° 43° (NE) 4,178 5.6 -18.4°
